{"data":{"norad_id":63373,"intl_designator":"2025-063L","name":"STARLINK-33617","alt_names":[],"object_type":"PAYLOAD","status":"ACTIVE","operator":null,"country":"US","launch_date":"2025-03-26","launch_site_code":"AFWTR","launch_vehicle":null,"mission":null,"orbit_class":"UNKNOWN","rcs_meters":null,"size_class":null,"mass_kg":null,"dimensions":null,"purposes":["comms"],"wikipedia_slug":null,"has_3d_model":false,"image_url":null,"decayed_at":null,"tle_current":{"epoch":"2026-09-20T07:07:55.527744Z","epoch_age_seconds":176391,"freshness":"STALE","line1":"1 63373U 25063L   26263.29717046  .00023937  00000+0  71703-3 0  9997","line2":"2 63373  53.1567 222.9298 0001173  96.7967 263.3169 15.34412822 84588","mean_motion":15.34412822,"eccentricity":0.0001173,"inclination_deg":53.1567,"raan_deg":222.9298,"arg_perigee_deg":96.7967,"mean_anomaly_deg":263.3169,"bstar":0.00071703,"rev_number":8458,"period_min":93.846973862162,"perigee_km":461.86270469643,"apogee_km":463.46755687631,"semimajor_km":6840.8021307864,"source":"CELESTRAK","updated_at":"2026-09-21T09:00:34.974132Z"}}}